Tracking 19832 objects as of 24-Aug-2019
HD Live streaming from Space Station
objects crossing your sky now

GLOBALSTAR M042

Track GLOBALSTAR M042 now!
10-day predictions
GLOBALSTAR M042 is classified as:


NORAD ID: 25679
Int'l Code: 1999-019D
Perigee: 1,588.7 km
Apogee: 1,593.1 km
Inclination: 52.0 °
Period: 117.8 minutes
Semi major axis: 7961 km
RCS: 2.3601 m2 (large)
Launch date: April 15, 1999
Source: Globalstar (GLOB)
Launch site: TYURATAM MISSILE AND SPACE COMPLEX (TTMTR)
aabbcc
Your satellite tracking list
Your tracking list is empty




NASA's NSSDC Master Catalog

Two Line Element Set (TLE):
1 25679U 99019D   19235.91206185 -.00000097 +00000-0 -45328-4 0  9993
2 25679 052.0011 287.3354 0002764 242.1335 169.7051 12.22012133925586
Source of the keplerian elements: AFSPC